Regional Weather Roundup
Issued by NWS Sterling, VA

Home | Current Version | Previous Version | Graphics & Text | Print | Product List | Glossary On
Versions: 1 2 3 4 5 6 7 8 9 10 11 12 13 14 15 16 17 18 19 20 21 22 23 24 25 26 27 28 29 30 31 32 33 34 35 36 37 38 39 40 41 42 43 44 45 46 47 48 49 50
000
ASUS41 KLWX 020710
RWRLWX

REGIONAL WEATHER ROUNDUP
NATIONAL WEATHER SERVICE BALTIMORE MD/WASHINGTON DC
300 AM EDT THU JUL 02 2015

Note: "FAIR" indicates few or no clouds below 12,000 feet
with no significant weather and/or obstructions to visibility.
 TC=TEMPERATURE CELSIUS

 * =Non NWS site. Station does not report precipitation (e.g. rain,
    snow, etc.), thunder, or fog.

DCZ001-MDZ009-015-VAZ040>042-051-053>054-020800-
WASHINGTON METRO

CITY           SKY/WX    TMP DP  RH WIND       PRES   REMARKS
WASHINGTON NAT PTCLDY    74  70  87 CALM      29.89F
DULLES         MOCLDY    67  63  87 CALM      29.90F
ANDREWS AFB    PTCLDY    68  68  99 CALM      29.88F FOG
FT BELVOIR     PTCLDY    68  66  94 CALM      29.89S FOG
QUANTICO       PTCLDY    75  69  81 NE5       29.89F
COLLEGE PARK*  CLEAR     68  68 100 CALM      29.88F
MANASSAS*      MOCLDY    70  68  94 CALM      29.90S
GAITHERSBURG*  PTCLDY    64  61  88 CALM      29.94F

$$

MDZ006>007-011-014-020800-
BALTIMORE METRO

CITY           SKY/WX    TMP DP  RH WIND       PRES   REMARKS
BWI AIRPORT    PTCLDY    66  64  93 CALM      29.89S
MD SCIENCE CTR   N/A     74  63  68 MISG      29.89F
MARTIN STATE   CLEAR     66  64  94 W6        29.90F
ANNAPOLIS      CLEAR     72  68  87 CALM      29.88F
FORT MEADE*    CLEAR     64  63  94 CALM      29.91F

$$

MDZ012-015-019>023-020800-
MARYLAND EASTERN SHORE

CITY           SKY/WX    TMP DP  RH WIND       PRES   REMARKS
OCEAN CITY     NOT AVBL
SALISBURY      CLEAR     70  67  90 CALM      29.89F
BAY BRIDGE AP*   N/A     70  70 100 CALM      29.88F
CAMBRIDGE*     CLEAR     72  68  88 CALM      29.89S
EASTON*        FOG       70  70 100 CALM      29.92F VSB 3/4

$$

MDZ017>025-020800-
SOUTHERN MARYLAND

CITY           SKY/WX    TMP DP  RH WIND       PRES   REMARKS
PATUXENT RIVER MOCLDY    74  69  85 CALM      29.88F
ST INIGOES     PTCLDY    73  69  87 CALM      29.88F
LEONARDTOWN*   MOCLDY    70  68  94 CALM      29.90F

$$

MDZ003>005-020800-
NORTH CENTRAL MARYLAND

CITY           SKY/WX    TMP DP  RH WIND       PRES   REMARKS
FREDERICK*     MOCLDY    63  63 100 CALM      29.93F FOG
HAGERSTOWN APT PTCLDY    66  59  78 CALM      29.92S
WESTMINSTER*   PTCLDY    64  61  88 CALM      29.92F

$$

MDZ501>502-020800-
WESTERN MARYLAND

CITY           SKY/WX    TMP DP  RH WIND       PRES   REMARKS
OAKLAND*       MOCLDY    59 N/A N/A CALM      30.00F
CUMBERLAND*    CLEAR     61  61 100 N6        29.96F

$$

VAZ025>031-020800-
SHENANDOAH VALLEY

CITY           SKY/WX    TMP DP  RH WIND       PRES   REMARKS
WINCHESTER*    NOT AVBL
FRONT ROYAL*   NOT AVBL
LURAY*         NOT AVBL
NEW MARKET*    NOT AVBL
STAUNTON*      NOT AVBL
WAYNESBORO*    NOT AVBL

$$

WVZ021-048>050-054>055-020800-
EASTERN WEST VIRGINIA PANHANDLE

CITY           SKY/WX    TMP DP  RH WIND       PRES   REMARKS
MARTINSBURG    MOCLDY    64  61  90 CALM      29.91F FOG
PETERSBURG*    NOT AVBL

$$

VAZ036>039-050-020800-
CENTRAL FOOTHILLS

CITY           SKY/WX    TMP DP  RH WIND       PRES   REMARKS
CHARLOTTESVILL PTCLDY    70  63  78 CALM      29.90S
CULPEPER*      NOT AVBL
ORANGE*        NOT AVBL
GORDONSVILLE*  NOT AVBL
WARRENTON*     NOT AVBL

$$

VAZ055>057-020800-
NORTH AND CENTRAL PIEDMONT

CITY           SKY/WX    TMP DP  RH WIND       PRES   REMARKS
FREDERICKSBRG* NOT AVBL
STAFFORD*      NOT AVBL

$$

NCZ024-NYZ072-PAZ021-071-VAZ022-071-020800-
OTHER REGIONAL OBSERVATIONS

CITY           SKY/WX    TMP DP  RH WIND       PRES   REMARKS
NEW YORK CITY  CLEAR     72  58  61 CALM      29.90S
PHILADELPHIA   PTCLDY    71  59  65 CALM      29.89F
PITTSBURGH     MOCLDY    60  57  89 CALM      29.92F
ROANOKE        CLOUDY    73  64  73 SW6       29.95S
RICHMOND       CLOUDY    76  71  85 SW5       29.88F
RALEIGH        CLOUDY    77  70  79 SW10      29.92F

$$

ANZ530>537-020800-
MARINE OBSERVATIONS

STATION/POSITION TIME  TEMP    WIND        PRES
                       AIR SEA DIR/SP/G
                 (UTC) (F)     (DEG/KT/KT) (MB)
THOMAS PT LIGHT  NOT AVBL
BALT KEY BRIDGE  0600   74     250/  4/  5 1012.2F
COVE POINT       0600   74      80/  4/  5 1013.1F
LEWISETTA        0600   77 81  330/  6/  7 1012.1R
SOLOMONS ISLAND  0600      80                N/A
PINEY POINT      0642           90/  5/  7   N/A

$$



USA.gov is the U.S. government's official web portal to all federal, state and local government web resources and services.